FW7384 Weather Reports


Display with metric or nautical units.
time (UTC)temp
F
wind
direction
speed
MPH
gust
MPH
rain 1hr
in
rain 24hr
in
rain mn
in
humidity
%
barometer
mb
20260906131503 64 216 3.0 13.0 0.00 0.09 0.06 64 1019.2
20260906131213 64 213 4.0 13.0 0.00 0.09 0.06 62 1019.1
20260906130503 64 203 5.0 11.0 0.00 0.09 0.06 60 1019.1
20260906130213 64 215 4.0 11.0 0.00 0.09 0.06 60 1019.1
20260906125503 64 223 4.0 10.0 0.00 0.09 0.06 61 1019.0
20260906125213 65 222 4.0 8.0 0.00 0.09 0.06 60 1019.0
20260906124714 64 229 3.0 8.0 0.00 0.09 0.06 61 1019.1
20260906124003 66 223 3.0 7.0 0.00 0.09 0.06 60 1018.7
20260906123503 65 225 3.0 7.0 0.00 0.09 0.06 64 1018.9
20260906123003 63 233 3.0 11.0 0.00 0.09 0.06 65 1019.0
20260906122714 64 220 4.0 11.0 0.00 0.09 0.06 63 1018.8
20260906122003 62 223 4.0 11.0 0.00 0.09 0.06 64 1018.9
20260906121713 64 234 3.0 11.0 0.00 0.09 0.06 62 1019.0
20260906121003 65 231 4.0 8.0 0.00 0.09 0.06 61 1018.8
20260906120713 65 218 4.0 8.0 0.00 0.09 0.06 62 1018.8
20260906120214 64 221 4.0 8.0 0.00 0.09 0.06 62 1018.7
20260906115713 65 233 3.0 8.0 0.00 0.09 0.06 63 1018.6
20260906115003 64 226 3.0 9.0 0.00 0.09 0.06 66 1018.6
20260906114713 64 225 3.0 9.0 0.00 0.09 0.06 66 1018.8
20260906114003 63 232 2.0 6.0 0.00 0.09 0.06 66 1018.8
20260906113713 63 242 2.0 6.0 0.00 0.09 0.06 65 1018.5
20260906113003 63 237 2.0 6.0 0.00 0.09 0.06 69 1018.5
20260906112713 64 242 2.0 7.0 0.00 0.09 0.06 69 1018.5
20260906112003 64 235 3.0 9.0 0.00 0.09 0.06 68 1018.3
20260906111713 64 234 4.0 11.0 0.00 0.09 0.06 68 1018.3
20260906111003 63 216 4.0 11.0 0.00 0.09 0.06 70 1018.4
20260906110503 63 214 3.0 6.0 0.00 0.09 0.06 72 1018.2
20260906110214 63 209 3.0 13.0 0.00 0.09 0.06 71 1018.2
20260906105713 62 197 3.0 13.0 0.00 0.09 0.06 72 1018.2
20260906105003 63 215 3.0 7.0 0.00 0.09 0.06 72 1018.3
20260906104503 62 222 3.0 7.0 0.00 0.09 0.06 71 1018.1
20260906104214 62 225 3.0 7.0 0.00 0.09 0.06 71 1018.1
20260906103503 62 221 3.0 6.0 0.00 0.09 0.06 76 1018.1
20260906103214 60 216 2.0 6.0 0.00 0.09 0.06 77 1018.0
20260906102503 62 240 2.0 7.0 0.00 0.09 0.06 76 1018.1
20260906102003 63 259 2.0 7.0 0.00 0.09 0.06 75 1018.0
20260906101503 61 255 3.0 6.0 0.00 0.09 0.06 75 1018.0
20260906101004 62 237 3.0 6.0 0.00 0.09 0.06 76 1018.0
20260906100713 61 230 3.0 8.0 0.00 0.09 0.06 77 1018.0
20260906100214 60 219 3.0 8.0 0.00 0.09 0.06 79 1018.0
20260906095503 60 213 3.0 7.0 0.00 0.09 0.06 80 1018.0
20260906095214 60 214 3.0 6.0 0.00 0.09 0.06 84 1018.0
20260906094504 60 248 2.0 6.0 0.00 0.09 0.06 84 1017.9
20260906094003 60 259 3.0 6.0 0.00 0.09 0.06 83 1018.0
20260906093712 60 264 3.0 6.0 0.00 0.09 0.06 83 1017.9
20260906093003 60 231 2.0 8.0 0.00 0.09 0.06 81 1018.0
20260906092503 60 221 3.0 8.0 0.00 0.09 0.06 83 1018.0
20260906092003 59 216 3.0 7.0 0.00 0.09 0.06 84 1017.8
20260906091503 60 211 3.0 7.0 0.00 0.09 0.06 84 1017.7
20260906091003 59 202 3.0 7.0 0.00 0.09 0.06 84 1017.7
20260906090504 59 225 2.0 7.0 0.00 0.09 0.06 86 1017.8
20260906090004 58 243 2.0 7.0 0.00 0.09 0.06 88 1017.6
20260906085714 58 222 2.0 5.0 0.00 0.09 0.06 89 1017.4
20260906085003 56 212 3.0 6.0 0.00 0.09 0.06 96 1017.5
20260906084503 56 196 3.0 8.0 0.00 0.09 0.06 99 1017.5
20260906084003 56 181 3.0 8.0 0.00 0.09 0.06 99 1017.4
20260906083503 54 200 3.0 7.0 0.00 0.09 0.06 99 1017.4
20260906083003 55 198 3.0 7.0 0.00 0.09 0.06 99 1017.3
20260906082503 54 194 3.0 7.0 0.00 0.09 0.06 99 1017.4
20260906082003 54 216 2.0 6.0 0.00 0.09 0.06 99 1017.3
20260906081503 54 227 2.0 6.0 0.01 0.09 0.06 99 1017.2
20260906081004 54 227 2.0 4.0 0.01 0.09 0.06 99 1017.0
20260906080503 52 241 1.0 4.0 0.01 0.09 0.06 99 1017.2
20260906080213 53 243 1.0 3.0 0.01 0.09 0.06 99 1017.1
20260906075503 53 208 2.0 4.0 0.02 0.09 0.06 99 1017.0
20260906075004 53 205 1.0 4.0 0.02 0.09 0.06 99 1017.0
20260906074503 53 207 1.0 5.0 0.03 0.09 0.06 99 1017.0
20260906074213 53 207 1.0 5.0 0.03 0.09 0.06 99 1017.1
20260906073503 53 224 2.0 5.0 0.03 0.09 0.06 99 1017.0
20260906073003 52 217 2.0 5.0 0.03 0.09 0.06 99 1016.9
20260906072503 52 209 2.0 6.0 0.03 0.09 0.06 99 1016.8
20260906072213 52 206 3.0 6.0 0.03 0.09 0.06 99 1016.7
20260906071503 52 242 3.0 6.0 0.02 0.08 0.06 99 1016.7
20260906071003 52 240 2.0 6.0 0.02 0.08 0.05 99 1016.7
20260906070714 52 229 2.0 6.0 0.02 0.08 0.05 99 1016.6
20260906070003 51 233 2.0 6.0 0.01 0.08 0.05 99 1016.5
20260906065503 51 208 3.0 6.0 0.01 0.08 0.04 99 1016.5
20260906065212 51 203 3.0 6.0 0.01 0.08 0.04 99 1016.3
20260906064504 50 217 2.0 4.0 0.00 0.08 0.04 99 1016.4
20260906064003 51 263 1.0 4.0 0.00 0.08 0.04 99 1016.3
20260906063503 50 296 2.0 4.0 0.00 0.09 0.04 99 1016.2
20260906063214 51 261 2.0 4.0 0.00 0.09 0.04 99 1016.2
20260906062713 50 206 2.0 4.0 0.00 0.09 0.04 99 1016.0
20260906062003 50 286 2.0 4.0 0.00 0.09 0.04 99 1015.9
20260906061503 50 303 2.0 4.0 0.00 0.09 0.04 99 1015.8
20260906061003 50 232 1.0 4.0 0.00 0.09 0.04 99 1015.8
20260906060713 50 192 1.0 4.0 0.00 0.09 0.04 99 1015.8
20260906060214 50 190 1.0 5.0 0.00 0.09 0.04 99 1015.7
20260906055503 49 192 2.0 5.0 0.00 0.09 0.04 99 1015.9
20260906055003 49 182 2.0 4.0 0.00 0.09 0.04 99 1015.7
20260906054503 49 172 2.0 4.0 0.00 0.09 0.04 99 1015.7
20260906054214 49 171 2.0 4.0 0.00 0.09 0.04 99 1015.7
20260906053503 49 171 2.0 5.0 0.00 0.09 0.04 99 1015.5
20260906053214 49 181 2.0 5.0 0.00 0.09 0.04 99 1015.6
20260906052713 49 199 2.0 5.0 0.01 0.09 0.04 99 1015.6
20260906052003 49 189 1.0 4.0 0.01 0.09 0.04 99 1015.3
20260906051503 49 196 2.0 4.0 0.01 0.09 0.04 99 1015.2
20260906051003 49 221 2.0 4.0 0.02 0.09 0.04 99 1015.0
20260906050503 49 171 2.0 4.0 0.02 0.09 0.04 99 1015.0
20260906050214 49 212 2.0 4.0 0.02 0.09 0.04 99 1015.0
20260906045503 49 224 2.0 4.0 0.03 0.09 0.04 99 1014.9
20260906045003 49 203 1.0 4.0 0.03 0.09 0.04 99 1014.8
20260906044503 49 191 1.0 4.0 0.03 0.09 0.04 99 1014.6
20260906044003 49 166 1.0 5.0 0.03 0.09 0.03 99 1014.7
20260906043715 49 176 1.0 5.0 0.03 0.09 0.03 99 1014.6
20260906043003 49 193 2.0 5.0 0.03 0.09 0.03 99 1014.7
20260906042504 49 181 2.0 5.0 0.03 0.09 0.03 99 1014.6
20260906042213 49 191 2.0 5.0 0.03 0.09 0.03 99 1014.4
20260906041712 49 214 2.0 5.0 0.02 0.08 0.02 99 1014.4
20260906041003 48 221 1.0 5.0 0.02 0.08 0.02 99 1014.3
20260906040503 48 224 2.0 6.0 0.01 0.08 0.01 99 1014.4
20260906040004 48 200 2.0 6.0 0.01 0.07 0.01 99 1014.4
20260906035714 48 214 1.0 6.0 0.01 0.07 0.01 99 1014.4
20260906035003 47 318 1.0 5.0 0.01 0.07 0.01 99 1014.2
20260906034503 47 286 1.0 5.0 0.00 0.07 0.00 99 1013.9
20260906034003 47 129 0.0 4.0 0.00 0.06 0.00 99 1014.1
20260906033503 47 199 0.0 1.0 0.00 0.06 0.00 99 1014.0
20260906033213 47 344 0.0 1.0 0.00 0.06 0.00 99 1013.8
20260906032503 47 9 0.0 1.0 0.00 0.06 0.00 99 1013.8
20260906032004 47 18 0.0 1.0 0.00 0.06 0.00 99 1013.8
20260906031714 47 10 0.0 1.0 0.00 0.06 0.00 99 1013.7
20260906031003 47 352 0.0 2.0 0.00 0.06 0.00 99 1013.7
20260906030503 47 359 0.0 2.0 0.00 0.06 0.00 99 1013.7
20260906030213 47 359 0.0 2.0 0.00 0.06 0.00 99 1013.7
20260906025714 47 41 0.0 1.0 0.00 0.06 0.00 99 1013.5
20260906025003 46 35 0.0 2.0 0.00 0.06 0.00 99 1013.5
20260906024503 46 34 0.0 2.0 0.00 0.06 0.00 99 1013.5
20260906024003 46 356 0.0 1.0 0.00 0.06 0.00 99 1013.6
20260906023503 46 350 0.0 1.0 0.00 0.06 0.00 99 1013.4
20260906023003 46 5 0.0 2.0 0.00 0.06 0.00 99 1013.4
20260906022503 46 18 0.0 2.0 0.00 0.06 0.00 99 1013.4
20260906022213 46 22 0.0 1.0 0.00 0.06 0.00 99 1013.4
20260906021504 45 12 1.0 2.0 0.00 0.06 0.00 99 1013.3
20260906021004 45 13 1.0 2.0 0.00 0.06 0.00 99 1013.3
20260906020714 46 20 1.0 2.0 0.00 0.06 0.00 99 1013.4
20260906020213 45 27 0.0 2.0 0.00 0.06 0.00 99 1013.4
20260906015714 45 42 0.0 1.0 0.00 0.06 0.00 99 1013.4
20260906015004 45 26 1.0 2.0 0.00 0.06 0.00 99 1013.1
20260906014714 45 18 1.0 2.0 0.00 0.06 0.00 99 1013.2
20260906014003 45 13 1.0 2.0 0.00 0.06 0.00 99 1013.1
20260906013503 45 14 1.0 2.0 0.00 0.06 0.00 99 1013.0
20260906013003 45 22 0.0 2.0 0.00 0.06 0.00 99 1012.9
20260906012503 45 27 0.0 2.0 0.00 0.06 0.00 99 1012.9
20260906012003 45 37 0.0 1.0 0.00 0.06 0.00 99 1012.7
20260906011503 45 22 0.0 1.0 0.00 0.06 0.00 99 1012.8
20260906011004 45 78 0.0 2.0 0.00 0.06 0.00 99 1012.7
20260906010505 46 151 0.0 2.0 0.00 0.06 0.00 99 1012.8
20260906010003 46 187 0.0 1.0 0.00 0.06 0.00 99 1012.5
20260906005713 46 0 0.0 0.0 0.00 0.06 0.00 99 1012.5
20260906005003 46 0 0.0 0.0 0.00 0.06 0.00 98 1012.6
20260906004503 46 208 0.0 2.0 0.00 0.06 0.00 98 1012.4
20260906004003 46 201 0.0 2.0 0.00 0.06 0.00 98 1012.4
20260906003503 45 193 0.0 2.0 0.00 0.06 0.00 99 1012.3
20260906003003 44 211 0.0 2.0 0.00 0.06 0.00 99 1012.3
20260906002503 44 225 0.0 1.0 0.00 0.08 0.00 99 1012.2
20260906002003 44 227 0.0 1.0 0.00 0.09 0.00 99 1012.2
20260906001503 44 293 0.0 1.0 0.00 0.13 0.00 99 1012.2
20260906001003 44 215 0.0 1.0 0.00 0.14 0.00 99 1012.1
20260906000504 44 173 0.0 1.0 0.00 0.16 0.00 99 1011.8
20260906000003 44 163 0.0 1.0 0.00 0.18 0.00 99 1011.9
20260905235503 44 0 0.0 0.0 0.00 0.18 0.00 99 1011.8
20260905235003 43 0 0.0 0.0 0.00 0.18 0.00 99 1011.8
20260905234504 43 252 0.0 1.0 0.00 0.18 0.00 99 1011.6
20260905234003 43 334 0.0 1.0 0.00 0.18 0.00 99 1011.5
20260905233503 43 17 0.0 1.0 0.00 0.18 0.00 99 1011.4
20260905233214 43 248 0.0 1.0 0.00 0.18 0.00 99 1011.5
20260905232713 44 199 0.0 1.0 0.00 0.18 0.00 99 1011.3
20260905232214 43 159 0.0 1.0 0.00 0.18 0.00 99 1011.3
20260905231503 43 30 1.0 3.0 0.00 0.18 0.00 99 1011.0
20260905231003 44 12 1.0 3.0 0.00 0.18 0.00 99 1011.0
20260905230715 44 297 0.0 2.0 0.00 0.18 0.00 99 1011.0
20260905230213 44 176 0.0 2.0 0.00 0.19 0.00 99 1010.7
20260905225503 44 54 0.0 2.0 0.00 0.19 0.00 99 1010.8
20260905225003 44 10 0.0 2.0 0.00 0.19 0.00 99 1010.7
20260905224712 44 9 0.0 2.0 0.00 0.19 0.00 99 1010.8
20260905224003 45 0 0.0 1.0 0.00 0.19 0.00 99 1010.7
20260905223714 45 37 0.0 1.0 0.00 0.19 0.00 99 1010.3
20260905223213 45 103 0.0 2.0 0.00 0.19 0.00 99 1010.3
20260905222503 45 131 0.0 2.0 0.00 0.19 0.00 99 1010.2
20260905222003 45 248 0.0 1.0 0.00 0.19 0.00 99 1010.3
20260905221503 45 146 0.0 1.0 0.00 0.19 0.00 99 1010.2
20260905221003 46 188 0.0 2.0 0.00 0.19 0.00 99 1010.1
20260905220503 46 202 0.0 2.0 0.00 0.19 0.00 99 1010.1
20260905220213 46 274 0.0 5.0 0.00 0.19 0.00 99 1010.1
20260905215714 46 290 1.0 5.0 0.00 0.19 0.19 99 1009.8
20260905215003 46 73 0.0 2.0 0.00 0.19 0.19 99 1009.8
20260905214714 46 119 0.0 2.0 0.00 0.19 0.19 99 1009.7
20260905214003 46 208 0.0 2.0 0.00 0.19 0.19 99 1009.7
20260905213503 46 207 0.0 2.0 0.00 0.19 0.19 99 1009.7
20260905213003 46 0 0.0 0.0 0.00 0.19 0.19 99 1009.5
20260905212503 47 0 0.0 0.0 0.00 0.19 0.19 99 1009.4
20260905212003 47 255 0.0 1.0 0.00 0.19 0.19 99 1009.2
20260905211714 47 242 0.0 1.0 0.00 0.19 0.19 99 1009.3
20260905211003 47 163 0.0 1.0 0.00 0.19 0.19 98 1009.1
20260905210503 47 103 0.0 1.0 0.00 0.19 0.19 98 1008.9
20260905210004 47 282 0.0 2.0 0.00 0.19 0.19 98 1008.7
20260905205714 47 228 0.0 2.0 0.00 0.19 0.19 98 1008.7
20260905205003 47 215 0.0 2.0 0.00 0.20 0.19 98 1008.9
20260905204714 48 219 0.0 2.0 0.00 0.20 0.19 98 1008.7
20260905204003 47 217 0.0 1.0 0.00 0.21 0.19 98 1008.5
20260905203503 47 0 0.0 0.0 0.00 0.21 0.19 98 1008.4
20260905203003 47 0 0.0 0.0 0.00 0.21 0.19 98 1008.3
20260905202714 47 0 0.0 0.0 0.00 0.21 0.19 98 1008.1
20260905202004 48 0 0.0 1.0 0.00 0.21 0.19 97 1008.1
20260905201503 48 209 0.0 1.0 0.00 0.21 0.19 97 1007.9
20260905201003 48 214 0.0 1.0 0.00 0.21 0.19 97 1007.8
20260905200503 48 214 0.0 1.0 0.00 0.21 0.19 97 1007.6
20260905200004 49 209 0.0 1.0 0.00 0.21 0.19 97 1007.7
20260905195503 49 208 0.0 2.0 0.00 0.21 0.19 97 1007.5
20260905195214 49 244 0.0 2.0 0.00 0.21 0.19 97 1007.7
20260905194713 49 257 0.0 2.0 0.00 0.21 0.19 97 1007.4
20260905194003 49 158 0.0 1.0 0.00 0.21 0.19 97 1007.5
20260905193713 49 158 0.0 1.0 0.00 0.21 0.19 96 1007.4
20260905193004 49 0 0.0 0.0 0.00 0.21 0.19 96 1007.2
20260905192503 50 217 0.0 1.0 0.00 0.21 0.19 96 1007.3
20260905192214 50 217 0.0 1.0 0.00 0.21 0.19 96 1007.0
20260905191504 50 0 0.0 0.0 0.00 0.21 0.19 96 1006.9
20260905190503 51 0 0.0 0.0 0.00 0.21 0.19 95 1006.7
20260905190004 51 62 0.0 1.0 0.00 0.21 0.19 95 1006.6
20260905185713 51 338 0.0 2.0 0.00 0.21 0.19 95 1006.5
20260905185214 51 279 0.0 2.0 0.00 0.21 0.19 95 1006.6
20260905184713 52 250 0.0 2.0 0.00 0.21 0.19 95 1006.5
20260905184214 52 226 0.0 2.0 0.00 0.21 0.19 95 1006.3
20260905183503 52 138 0.0 2.0 0.00 0.21 0.19 95 1006.4
20260905183004 52 112 0.0 2.0 0.00 0.21 0.19 95 1006.4
20260905182713 52 164 0.0 2.0 0.00 0.21 0.19 95 1006.2
20260905182003 52 225 1.0 3.0 0.00 0.21 0.19 94 1006.2
20260905181504 52 214 1.0 4.0 0.00 0.21 0.19 94 1006.3
20260905181003 52 222 1.0 4.0 0.00 0.21 0.19 93 1005.7
20260905180503 53 221 2.0 5.0 0.00 0.21 0.19 93 1006.0
20260905180004 53 226 1.0 5.0 0.00 0.21 0.19 93 1005.8
20260905175713 53 217 1.0 5.0 0.00 0.21 0.19 93 1005.7
20260905175003 53 221 1.0 4.0 0.00 0.21 0.19 93 1005.7
20260905174503 53 211 1.0 4.0 0.00 0.21 0.19 93 1005.7
20260905174003 53 209 1.0 4.0 0.00 0.21 0.19 94 1005.4
20260905173503 53 213 1.0 4.0 0.00 0.21 0.19 94 1005.4
20260905173003 53 214 1.0 4.0 0.00 0.21 0.19 94 1005.7
20260905172503 53 216 1.0 4.0 0.00 0.21 0.19 94 1005.3
20260905172003 54 214 1.0 3.0 0.00 0.21 0.19 94 1005.3
20260905171714 54 217 1.0 3.0 0.00 0.21 0.19 94 1005.3
20260905171003 54 217 1.0 3.0 0.00 0.21 0.19 93 1005.2
20260905170714 54 217 1.0 3.0 0.00 0.21 0.19 94 1005.0
20260905170003 54 209 2.0 4.0 0.00 0.21 0.19 93 1005.0
20260905165503 54 205 1.0 4.0 0.00 0.21 0.19 93 1005.1
20260905165003 54 203 1.0 3.0 0.00 0.21 0.19 93 1005.0
20260905164504 54 223 1.0 3.0 0.00 0.21 0.19 93 1004.9
20260905164213 54 222 1.0 3.0 0.00 0.21 0.19 92 1004.9
20260905163503 54 209 2.0 6.0 0.00 0.21 0.19 92 1004.7
20260905163003 54 207 3.0 6.0 0.00 0.21 0.19 91 1004.7
20260905162714 54 205 2.0 7.0 0.00 0.21 0.19 91 1004.6
20260905162004 54 207 3.0 7.0 0.00 0.21 0.19 92 1004.8
20260905161503 54 218 2.0 6.0 0.01 0.21 0.19 92 1004.7
20260905161213 54 223 2.0 6.0 0.01 0.21 0.19 91 1004.7
20260905160503 55 242 1.0 3.0 0.01 0.21 0.19 92 1004.5
20260905160003 54 227 1.0 4.0 0.01 0.21 0.19 92 1004.4
20260905155714 54 263 1.0 4.0 0.01 0.21 0.19 92 1004.5
20260905155215 54 294 2.0 4.0 0.01 0.21 0.19 91 1004.5
20260905154503 55 325 1.0 4.0 0.01 0.21 0.19 92 1004.3
20260905154213 54 197 1.0 5.0 0.01 0.21 0.19 92 1004.1
20260905153503 55 288 2.0 6.0 0.02 0.21 0.19 91 1004.2
20260905153003 55 276 2.0 6.0 0.02 0.21 0.19 91 1004.1
20260905152714 55 268 2.0 5.0 0.02 0.21 0.19 92 1004.2
20260905152003 54 284 2.0 5.0 0.02 0.21 0.19 91 1004.3
20260905151714 55 269 2.0 6.0 0.02 0.20 0.19 91 1004.0
20260905151003 56 272 2.0 8.0 0.01 0.20 0.18 90 1004.2
20260905150714 56 291 2.0 8.0 0.01 0.20 0.18 89 1004.2
20260905150004 56 263 2.0 7.0 0.01 0.19 0.18 90 1004.0
20260905145503 55 263 2.0 6.0 0.01 0.19 0.18 90 1003.9
20260905145214 55 262 2.0 6.0 0.01 0.19 0.18 89 1003.9
20260905144504 56 289 2.0 5.0 0.01 0.19 0.18 89 1004.0
20260905144212 56 291 2.0 8.0 0.01 0.19 0.18 88 1004.0
20260905143503 58 264 2.0 8.0 0.00 0.19 0.17 84 1004.0
20260905143003 59 246 2.0 11.0 0.00 0.18 0.17 83 1003.7
20260905142503 59 228 3.0 11.0 0.00 0.18 0.17 81 1003.7
20260905142003 59 229 3.0 11.0 0.00 0.18 0.17 80 1003.8
20260905141503 58 235 3.0 6.0 0.00 0.18 0.17 84 1003.6
20260905141003 58 206 3.0 7.0 0.00 0.18 0.17 84 1003.8
20260905140713 58 208 3.0 9.0 0.00 0.18 0.17 83 1003.7
20260905140214 58 215 3.0 9.0 0.00 0.18 0.17 85 1003.6
20260905135713 59 215 3.0 8.0 0.00 0.18 0.17 83 1003.6
20260905135003 57 236 3.0 7.0 0.00 0.18 0.17 85 1003.5
20260905134503 57 229 3.0 9.0 0.00 0.18 0.17 86 1003.7
20260905134003 59 216 4.0 12.0 0.00 0.18 0.17 83 1003.7
20260905133715 59 228 4.0 12.0 0.00 0.18 0.17 80 1003.6
20260905133003 60 217 5.0 13.0 0.00 0.18 0.17 75 1003.7
20260905132503 60 214 5.0 13.0 0.00 0.18 0.17 78 1003.5
20260905132214 59 210 5.0 13.0 0.00 0.18 0.17 80 1003.4